Regional Weather Roundup
Issued by NWS

Home | Current Version | Previous Version | Text Only | Print | Product List | Glossary On
Versions: 1 2 3 4 5 6 7 8 9 10 11 12 13 14 15 16 17 18 19 20 21 22 23 24 25 26 27
000
ASUS45 KBOU 230607
RWRCO

WEATHER ROUNDUP FOR COLORADO
NATIONAL WEATHER SERVICE DENVER/BOULDER CO
1200 AM MDT WED AUG 23 2017

NOTE: "FAIR" INDICATES FEW OR NO CLOUDS BELOW 12000 FEET WITH NO
SIGNIFICANT WEATHER AND/OR OBSTRUCTIONS TO VISIBILITY.

COZ001>005-013-030-031-230700-
...NORTHWEST COLORADO...

CITY           SKY/WX    TMP DP  RH WIND       PRES   REMARKS
CRAIG          FAIR      60  42  51 CALM      30.30F
HAYDEN         FAIR      62  39  42 SE3       30.34F
MEEKER         FAIR      58  44  60 N6        30.32F
RABBIT EARS PA CLOUDY    52  34  50 CALM      30.62S
STEAMBOAT SPGS FAIR      60  43  54 SE3       30.34F
WALDEN         FAIR      54  37  54 SE5       30.44S
$$

COZ006>008-011-230700-
...WEST CENTRAL VALLEYS...

CITY           SKY/WX    TMP DP  RH WIND       PRES   REMARKS
GRAND JUNCTION FAIR      67  48  50 CALM      30.22R
MONTROSE       FAIR      62  47  57 SE8       30.32S
EAGLE          FAIR      60  41  49 E6        30.37F
RIFLE          FAIR      65  44  46 E5        30.28F
DELTA          FAIR      67  46  46 N8        30.27S
NUCLA          FAIR      63  45  51 SE6       30.33F
$$

COZ017>023-064>068-230700-
...SOUTHWEST COLORADO...

CITY           SKY/WX    TMP DP  RH WIND       PRES   REMARKS
DURANGO        FAIR      60  43  53 SE3       30.37S
CORTEZ         FAIR      57  50  77 NE3       30.29S
PAGOSA SPRINGS FAIR      53  49  85 CALM      30.46S
TELLURIDE      FAIR      51  45  81 SE6       30.55S
WOLF CREEK PAS FAIR      41  36  81 S3        30.77F
$$

COZ009-010-012-014-032>034-037-058>063-230700-
...CENTRAL COLORADO...

CITY           SKY/WX    TMP DP  RH WIND       PRES   REMARKS
ASPEN          FAIR      53  42  66 SW8       30.43F
BUENA VISTA    FAIR      51  46  84 W6        30.49F
COPPER MTN     FAIR      48  34  57 S14       30.72F
BERTHOUD PASS  FAIR      41  36  81 W16G25    30.75F
COTTONWOOD PAS MOCLDY    54  41  62 W9        30.60F
GUNNISON       FAIR      52  44  74 N7        30.48S
KREMMLING      FAIR      66  41  39 S7        30.41S
LEADVILLE      FAIR      46  39  76 E3        30.59F
SALIDA         FAIR      57  48  73 W8        30.54F
SUNLIGHT       FAIR      46  34  61 SE6       30.66F
WILKERSON PASS MOCLDY    48  34  57 W3        30.70F
$$

COZ069>075-230700-
...SAN LUIS VALLEY/SANGRE DE CRISTO MOUNTAINS...

CITY           SKY/WX    TMP DP  RH WIND       PRES   REMARKS
ALAMOSA        MOCLDY    52  50  93 SE5       30.47F
DEL NORTE      FAIR      53  47  79 SW5       30.48F
LA VETA PASS   NOT AVBL
SAGUACHE         N/A    N/A N/A N/A MISG        N/A
$$

COZ035-036-038>040-230700-
...NORTHERN COLORADO FRONT RANGE...

CITY           SKY/WX    TMP DP  RH WIND       PRES   REMARKS
DENVER INTL AP MOCLDY    69  44  40 S13       30.20F
DMNS CITY PARK   N/A     68  44  41 E8        30.19F
AURORA         PTCLDY    67  46  47 S13       30.23F
FRONT RANGE AP FAIR      68  50  52 S17       30.22F
ERIE MUNI ARPT FAIR      65  47  52 CALM      30.23S
BOULDER MUN AP FAIR      72  41  33 NE7       30.19S
CENTENNIAL     FAIR      69  42  37 SW9       30.24F
BROOMFIELD     FAIR      70  41  35 N8        30.22S
FORT COLLINS   FAIR      64  58  80 NE7       30.18S
LONGMONT       FAIR      68  47  45 CALM      30.20S
$$

COZ041-046-047-076>085-087-088-230700-
...PIKES PEAK/PALMER DIVIDE AND SOUTHERN FOOTHILLS...

CITY           SKY/WX    TMP DP  RH WIND       PRES   REMARKS
COLO. SPRINGS  MOCLDY    63  51  65 E7        30.35S
A. F. ACADEMY  CLOUDY    59  53  80 CALM      30.34F
SCHRIEVER AFB  FAIR      58  51  77 E5        30.34F
CHEYENNE MTN   MOCLDY    60  53  77 CALM      30.33S
ELLICOTT       FAIR     N/A N/A N/A S10       30.32F
FALCON         FAIR      58  48  71 CALM      30.39S
FORT CARSON    FAIR      60  51  71 SW3       30.31F
LIMON          FAIR      59  56  89 S12       30.29F
MONUMENT HILL  FAIR      55  50  82 S12       30.38F
CANON CITY     CLEAR     68  54  60 SW8       30.28F
WALSENBURG     FAIR      61  52  72 W3        30.33F
TRINIDAD       FAIR      58  51  78 W12       30.33F
$$

COZ042>045-048>051-090-091-230700-
...NORTHEAST COLORADO...

CITY           SKY/WX    TMP DP  RH WIND       PRES   REMARKS
GREELEY ARPT   FAIR      61  57  87 E3        30.16F
AKRON          FAIR      64  53  67 S17G25    30.21F
BURLINGTON     FAIR      62  55  77 S12       30.25F
WRAY           FAIR      63  50  63 SE13      30.22S
YUMA           FAIR      59  45  58 SE8       30.22S
STERLING       FAIR      68  55  64 S15G21    30.16S
HOLYOKE        FAIR      63  52  67 S9        30.21S
FORT MORGAN    FAIR      63  54  71 SE7       30.18F
$$

COZ086-089-092>099-230700-
...SOUTHEAST COLORADO...

CITY           SKY/WX    TMP DP  RH WIND       PRES   REMARKS
PUEBLO         FAIR      62  51  67 CALM      30.25F
LA JUNTA       FAIR      67  57  70 S5        30.25F
LAMAR          FAIR      65  55  70 S12       30.22F
SPRINGFIELD      N/A     60  58  92 SE6       30.28F
$$




USA.gov is the U.S. government's official web portal to all federal, state and local government web resources and services.